Location: East Irvine
(33.6759°N, 117.7598°W)
Time: 01:19:28
(UTC+00:00)

Okean 2 Rocket - Pass Details

Date: 15 November 2025
Orbit: 611 x 635 km, 82.5° (Epoch: 07 December)

Event Time Altitude Azimuth Distance (km) Brightness Sun altitude
Rises 01:37:01 0° 154° (SSE) 2,894 6.4 -10.4°
Reaches altitude 10° 01:39:40 10° 138° (SE) 1,987 5.4 -11.0°
Maximum altitude 01:42:59 21° 89° (E) 1,388 4.3 -11.6°
Enters shadow 01:45:17 15° 50° (NE) 1,701 4.8 -12.1°
